TIANHUI 2-01B (44209 NORAD) Tracking and Keplerian Element Data

This shows tracking and keplerian element data for the satellite.

Feedback or suggestion? Click here.




ElementValue
Catalog44209
NameTIANHUI 2-01B
Epoch Orbit393
Epoch Day145.93447343
Epoch Year2019
RAAN153.0647
Inclination97.4502
Eccentricity0.0001927
Argument of Perigee81.966
Mean Anonmoly5.7485
Mean Motion15.1676525
Decay Rate-5.49E-06
L11 44209U 19024C 19145.93447343 -.00000549 00000-0 -24654-4 0 9997
L22 44209 97.4502 153.0647 0001927 81.9660 5.7485 15.16765250 3935

Live tracking and technical data element details for TIANHUI 2-01B (NORAD 44209). TIANHUI 2-01B can be tracked NOW for your location showing map with azimuth and elevation plus other details from your city location.

Track the satellite on the map from your city or location and see movement details for azimuth, elevation, latitude, longitude, range, height, and movement on the map or in text.







IsCatalogInMostPopularTable: catalog: 44209, numindb: 6
Update: records affected: 1



GetName: 44209 TIANHUI 2-01B

Hit Count: updated at: Sun, 26 May 2019 07:08:34 GMT